Regional Weather Roundup
Issued by NWS

Home | Current Version | Previous Version | Graphics & Text | Print | Product List | Glossary On
Versions: 1 2 3 4 5 6 7 8 9 10 11 12 13 14 15 16 17 18 19 20 21 22 23 24 25 26 27 28 29 30 31 32 33 34 35 36 37 38 39 40 41 42 43 44 45 46 47 48 49 50
000
ASUS44 KMEG 251310
RWRTN
TENNESSEE HOURLY STATE WEATHER ROUNDUP
NATIONAL WEATHER SERVICE MEMPHIS TN
800 AM CDT WED APR 25 2018

TNZ002-004-019-021-049-052-054-088>092-251400-
WEST TENNESSEE

CITY           SKY/WX    TMP DP  RH WIND       PRES   REMARKS
MEMPHIS INTL   FAIR      59  58  96 CALM      30.04R
NWS MEMPHIS      N/A     54 N/A N/A MISG        N/A
JACKSON        FAIR      57  56  96 W3        30.03R
DYERSBURG      FAIR      56  56 100 SW6       30.03R
SOMERVILLE     SUNNY     55  55 100 CALM      30.03R FOG
COVINGTON      SUNNY     54  54 100 CALM      30.04R FOG
UNION CITY     SUNNY     57  55  94 CALM      30.01R FOG
BOLIVAR        SUNNY     57  55  94 W3        30.03S
PARIS          SUNNY     55  54  94 CALM      30.01S FOG
HUNTINGDON     SUNNY     55  55 100 CALM      30.01S FOG
LEXINGTON      SUNNY     55  54  94 CALM      30.02R
SELMER         SUNNY     55  54  94 VRB5      30.02R
SAVANNAH       SUNNY     54  54 100 CALM      30.03R FOG
$$

TNZ008-025-027-028-033-062-065-066-251400-
NORTH MIDDLE TENNESSEE

CITY           SKY/WX    TMP DP  RH WIND       PRES   REMARKS
NASHVILLE      FAIR      58  52  80 NW9G17    30.01R
PORTLAND       CLOUDY    55  54  94 NW7       30.00R
CLARKSVILLE    FAIR      56  52  86 CALM      30.01S FOG
SMYRNA         CLOUDY    57  53  86 NW9       30.01S
COOKEVILLE     PTSUNNY   54  54 100 NW7       29.97S
LIVINGSTON     CLOUDY    52  52 100 N7        29.96R FOG
GALLATIN       CLOUDY    57  52  82 NW10      30.03R
CROSSVILLE     CLOUDY    52  50  93 NW8       29.96S
$$

TNZ061-075-076-078-094-096-097-251400-
SOUTH MIDDLE TENNESSEE

CITY           SKY/WX    TMP DP  RH WIND       PRES   REMARKS
LEWISBURG      CLOUDY    57  52  82 N8        30.00S
FAYETTEVILLE   CLOUDY    55  54  94 NW8       29.99S
TULLAHOMA      CLOUDY    55  52  88 N9        29.99S
WINCHESTER     CLOUDY    55  52  88 VRB6      29.99R
MCMINNVILLE    CLOUDY    55  52  88 NW6       29.99R
COLUMBIA       CLOUDY    57  57 100 VRB6      30.00S
SHELBYVILLE    CLOUDY    55  54  94 NW7       30.00S
$$

TNZ017-018-042-046-047-251400-
NORTHEAST TENNESSEE

CITY           SKY/WX    TMP DP  RH WIND       PRES   REMARKS
TRI CITIES     PTSUNNY   57  53  86 W7        29.88R
ELIZABETHTON   CLOUDY    55  52  88 CALM      29.88R
$$

TNZ012-013-036-069-073-074-251400-
CENTRAL EAST TENNESSEE

CITY           SKY/WX    TMP DP  RH WIND       PRES   REMARKS
KNOXVILLE      LGT RAIN  55  54  96 W5        29.92R
OAK RIDGE      LGT RAIN  57  55  93 VRB3      29.94R
DOWNTOWN KNOXV CLOUDY    59  57  94 SW5       29.93R
GATLINBURG     CLOUDY    57  54  88 CALM      29.92R
MORRISTOWN     CLOUDY    57  54  88 W5        29.91R
JACKSBORO      CLOUDY    57  52  82 VRB5G13   29.96R
$$

TNZ083-085-099-251400-
SOUTHEAST TENNESSEE

CITY           SKY/WX    TMP DP  RH WIND       PRES   REMARKS
CHATTANOOGA    PTSUNNY   59  49  69 NW7       29.95R
DAYTON         CLOUDY    59  54  82 NW6G13    29.94R
$$

SKY/WX REPORTED AS FAIR MEANS FEW OR NO CLOUDS BELOW
12 THOUSAND FEET.





USA.gov is the U.S. government's official web portal to all federal, state and local government web resources and services.